Location: Newark
(16.3678°N, 77.8722°E)
Time: 18:03:21
(UTC+00:00)

S-56A Canister/Altair - Pass Details

Date: 19 December 2019
Orbit: 634 x 2498 km, 38.9° (Epoch: 26 January)

Event Time Altitude Azimuth Distance (km) Brightness Sun altitude
Rises 11:38:44 0° 288° (WNW) 5,954 12.8 8.1°
Reaches altitude 10° 11:44:15 10° 274° (W) 4,704 12.7 6.9°
Maximum altitude 11:52:41 21° 232° (SW) 3,383 12.5 5.1°
Drops below altitude 10° 11:59:29 10° 188° (S) 3,651 11.5 3.6°
Sets 12:03:06 0° 172° (S) 4,315 11.6 2.9°
